National Weather Service United States Department of Commerce

Latest Hourly Weather Roundup

TOPSWRTT 000
TTAA00 KICT 240612

Wichita AWIPS Roundup
National Weather Service Wichita KS
100 AM CDT THU AUG 24 2017

....Central Kansas....
  
CITY           SKY/WX    TMP DP  RH WIND       PRES   REMARKS
RUSSELL        CLEAR     66  51  58 SE12      30.05S                  
6HR MIN TEMP:  66; 6HR MAX TEMP:  83;                                

SALINA         CLOUDY    63  54  72 S5        30.07R                  
6HR MIN TEMP:  63; 6HR MAX TEMP:  85;                                

GREAT BEND     CLEAR     60  52  74 SE6       30.08R                  
6HR MIN TEMP:  60; 6HR MAX TEMP:  82;                                

ELLSWORTH      CLEAR     61  54  77 SE5       30.06F                  
MCPHERSON      CLEAR     61  55  82 SE5       30.07S                  
HAYS           CLEAR     63  51  65 SE8       30.07R                  
6HR MIN TEMP:  62; 6HR MAX TEMP:  83;                                


....South Central Kansas....
  
CITY           SKY/WX    TMP DP  RH WIND       PRES   REMARKS
HUTCHINSON     CLEAR     61  54  77 E3        30.07R                  
6HR MIN TEMP:  60; 6HR MAX TEMP:  80;                                

NEWTON         CLEAR     59  55  87 SE7       30.08S                  
6HR MIN TEMP:  59; 6HR MAX TEMP:  78;                                

KINGMAN        CLEAR     64  54  68 SE3       30.07S                  
WICHITA (ICT)  CLEAR     64  55  72 SE6       30.06S                  
6HR MIN TEMP:  64; 6HR MAX TEMP:  81;                                

JABARA ARPT    CLEAR     63  57  81 SE3       30.07R                  
6HR MIN TEMP:  62; 6HR MAX TEMP:  78;                                

BEECH ARPT     FAIR      62  55  76 E3        30.07S                  
6HR MIN TEMP:  62; 6HR MAX TEMP:  79;                                

MCCONNELL AFB  CLEAR     65  54  65 SE7       30.07S                  
6HR MIN TEMP:  65; 6HR MAX TEMP:  81;                                

BENTON         FAIR      61  55  81 SE5       30.08R                  
6HR MIN TEMP:  61; 6HR MAX TEMP:  77;                                

EL DORADO      FAIR      63  57  82 SE5       30.08R                  
AUGUSTA        FAIR      61  55  82 E3        30.07S                  
HARPER         NOT AVBL                                               
WELLINGTON     CLEAR     61  55  82 E6        30.05S                  
WINFIELD       CLEAR     63  55  75 E5        30.07S                  
6HR MIN TEMP:  63; 6HR MAX TEMP:  79;                                

 
....Southeast Kansas....
  
CITY           SKY/WX    TMP DP  RH WIND       PRES   REMARKS
EUREKA         HVY RAIN  63  57  82 E6        30.08S                  
IOLA             N/A     59  57  94 CALM      30.07F                  
CHANUTE        CLEAR     62  55  77 CALM      30.06F                  
6HR MIN TEMP:  62; 6HR MAX TEMP:  78;                                

PARSONS        CLEAR     58  56  93 CALM      30.06F                  
6HR MIN TEMP:  58; 6HR MAX TEMP:  78; 6HR PCP: TRACE;                

COFFEYVILLE    CLEAR     60  57  89 N3        30.04F                  
6HR MIN TEMP:  59; 6HR MAX TEMP:  78; 6HR PCP: TRACE;                

INDEPENDENCE   CLEAR     60  56  86 N3        30.05S                  
6HR MIN TEMP:  60; 6HR MAX TEMP:  78;                                

FORT SCOTT     CLEAR     59  54  82 CALM      30.05S                  
PITTSBURG      CLEAR     62  59  88 CALM      30.05F                  

....Western Kansas....
  
CITY           SKY/WX    TMP DP  RH WIND       PRES   REMARKS
GOODLAND       CLEAR     65  62  90 S10       30.05F                  
6HR MIN TEMP:  65; 6HR MAX TEMP:  82;                                

HILL CITY      PTCLDY    67  49  52 S7        30.05S                  
6HR MIN TEMP:  66; 6HR MAX TEMP:  85;                                

LIBERAL        CLOUDY    65  63  93 SE7       30.09S                  
6HR MIN TEMP:  65; 6HR MAX TEMP:  81;                                

GARDEN CITY    PTCLDY    63  52  67 SE9       30.07F                  
6HR MIN TEMP:  63; 6HR MAX TEMP:  81;                                

DODGE CITY     CLEAR     64  52  64 S10       30.08S                  
6HR MIN TEMP:  64; 6HR MAX TEMP:  84;                                

PRATT          CLOUDY    62  53  71 CALM      30.08R                  
6HR MIN TEMP:  62; 6HR MAX TEMP:  82;                                

MEDICINE LODGE   N/A     66  53  63 E3        30.06S                  
6HR MIN TEMP:  65; 6HR MAX TEMP:  83;                                


....Northeast Kansas....
  
CITY           SKY/WX    TMP DP  RH WIND       PRES   REMARKS
CONCORDIA      CLEAR     63  55  75 S12       30.06S                  
6HR MIN TEMP:  61; 6HR MAX TEMP:  77;                                

TOPEKA         CLEAR     65  62  90 CALM      30.06S                  
6HR MIN TEMP:  63; 6HR MAX TEMP:  77;                                

MANHATTAN      CLEAR     62  57  83 CALM      30.07R                  
6HR MIN TEMP:  61; 6HR MAX TEMP:  77;                                

LAWRENCE       CLEAR     60  59  96 CALM      30.06F                  
6HR MIN TEMP:  60; 6HR MAX TEMP:  77;                                

OLATHE         CLEAR     63  59  87 CALM      30.07S                  
6HR MIN TEMP:  63; 6HR MAX TEMP:  74;                                

EMPORIA        CLEAR     62  56  80 S3        30.07S                  
6HR MIN TEMP:  61; 6HR MAX TEMP:  76;                                


....Oklahoma....
  
CITY           SKY/WX    TMP DP  RH WIND       PRES   REMARKS
GAGE           CLOUDY    65  60  84 CALM      30.08R                  
6HR MIN TEMP:  65; 6HR MAX TEMP:  83;                                

PONCA CITY     CLEAR     64  55  72 NE6       30.04S                  
6HR MIN TEMP:  62; 6HR MAX TEMP:  81;                                

BARTLESVILLE   CLEAR     60  57  89 CALM      30.05F                  
6HR MIN TEMP:  59; 6HR MAX TEMP:  78;                                

TULSA          CLEAR     67  60  78 NE3       30.01F                  
6HR MIN TEMP:  66; 6HR MAX TEMP:  82;                                

OKLAHOMA CITY  PTCLDY    69  58  67 E8        30.03S                  
6HR MIN TEMP:  69; 6HR MAX TEMP:  82;                                


Note: "fair" indicates few or no clouds below 12,000 feet with no
significant weather and/or obstructions to visibility.